Weather History for Deadhorse, AK

Change the Weather History Date:

Sunday, February 23, 2014

  Actual Average Record
Temperature  
Mean Temperature -14 °F -  
Max Temperature -7 °F -8 °F 28 °F (2011)
Min Temperature -20 °F -20 °F -47 °F (2007)
Degree Days  
Heating Degree Days 78    
Moisture  
Dew Point -16 °F    
Average Humidity 78    
Maximum Humidity 83    
Minimum Humidity 73    
Precipitation  
Precipitation 0.00 in - - ()
Sea Level Pressure  
Sea Level Pressure 30.24 in    
Wind  
Wind Speed 19 mph (East)    
Max Wind Speed 30 mph    
Max Gust Speed 34 mph    
Visibility 4 miles    
Events Snow    
Averages and records for this station are not official NWS values.
T = Trace of Precipitation, MM = Missing Value Source: NWS Daily Summary

Daily Weather History Graph

Daily Weather History Graph

Search for Another Location

Airport:

Trip Planner

Search our weather history database for the weather conditions in past years. The results will help you decide how hot, cold, wet, or windy it might be!

Date:

Astronomy

Feb. 23, 2014 Rise Set
Actual Time 8:48 AM AKST 5:27 PM AKST
Civil Twilight 7:44 AM AKST 6:32 PM AKST
Nautical Twilight 6:33 AM AKST 7:43 PM AKST
Astronomical Twilight 5:20 AM AKST 8:56 PM AKST
Moon 6:46 AM AKST (2/23) 8:47 AM AKST (2/23)
Length of Visible Light 10h 47m
Length of Day
8h 38m
Last Quarter, 37% of the Moon is Illuminated
Feb 23
Last Quarter
Feb 28
New
Mar 8
First Quarter
Mar 16
Full
Mar 23
Last Quarter

Hourly Weather History & Observations

Time (AKST) Temp. Windchill Dew Point Humidity Pressure Visibility Wind Dir Wind Speed Gust Speed Precip Events Conditions
12:53 AM -20.9 °F -47.0 °F -27.0 °F 73% 30.40 in 10.0 mi East 16.1 mph - N/A   Scattered Clouds
1:53 AM -20.0 °F -45.8 °F -26.0 °F 74% 30.39 in 10.0 mi East 16.1 mph - N/A   Scattered Clouds
2:53 AM -20.0 °F -45.8 °F -26.0 °F 74% 30.38 in 10.0 mi East 16.1 mph - N/A   Scattered Clouds
3:53 AM -18.0 °F -42.5 °F -24.0 °F 74% 30.36 in 10.0 mi East 15.0 mph - N/A   Scattered Clouds
4:53 AM -15.0 °F -41.4 °F -20.9 °F 75% 30.34 in 7.0 mi East 19.6 mph - N/A   Scattered Clouds
5:26 AM -13.0 °F -38.8 °F -18.4 °F 77% 30.32 in 2.5 mi East 19.6 mph - N/A Snow Blowing Snow
5:35 AM -13.0 °F -39.4 °F -18.4 °F 77% 30.32 in 3.0 mi East 20.7 mph - N/A Snow Blowing Snow
5:53 AM -11.9 °F -36.8 °F -17.0 °F 78% 30.34 in 5.0 mi East 18.4 mph - N/A Snow Blowing Snow
6:53 AM -11.0 °F -37.4 °F -17.0 °F 75% 30.32 in 3.0 mi East 21.9 mph - N/A Snow Blowing Snow
7:53 AM -9.9 °F -36.5 °F -15.0 °F 78% 30.29 in 3.0 mi East 23.0 mph - N/A Snow Blowing Snow
8:43 AM -9.4 °F -36.8 °F -14.8 °F 77% 30.27 in 1.5 mi East 25.3 mph - N/A Snow Blowing Snow
8:53 AM -9.9 °F -37.5 °F -15.0 °F 78% 30.28 in 1.0 mi East 25.3 mph 32.2 mph N/A Snow Blowing Snow
9:16 AM -9.4 °F -38.6 °F -14.8 °F 77% 30.25 in 0.8 mi East 29.9 mph - N/A Snow Blowing Snow
9:53 AM -9.9 °F -38.0 °F -15.0 °F 78% 30.27 in 0.8 mi East 26.5 mph 34.5 mph 0.00 in Snow Blowing Snow
10:53 AM -9.9 °F -38.0 °F -15.0 °F 78% 30.27 in 0.8 mi East 26.5 mph 32.2 mph N/A Snow Blowing Snow
11:53 AM -9.0 °F -36.8 °F -14.1 °F 79% 30.23 in 0.8 mi East 26.5 mph - N/A Snow Blowing Snow
12:53 PM -8.0 °F -34.9 °F -13.0 °F 79% 30.23 in 1.0 mi East 25.3 mph - N/A Snow Blowing Snow
12:55 PM -7.6 °F -33.9 °F -13.0 °F 77% 30.21 in 0.8 mi East 24.2 mph - N/A Snow Blowing Snow
1:02 PM -7.6 °F -33.4 °F -13.0 °F 77% 30.22 in 1.0 mi East 23.0 mph - N/A Snow Blowing Snow
1:53 PM -7.1 °F -33.2 °F -11.9 °F 79% 30.21 in 1.2 mi East 24.2 mph 32.2 mph N/A Snow Blowing Snow
2:53 PM -7.1 °F -31.6 °F -11.9 °F 79% 30.20 in 1.5 mi ENE 20.7 mph - N/A Snow Blowing Snow
3:53 PM -7.1 °F -33.2 °F -11.9 °F 79% 30.17 in 1.2 mi East 24.2 mph - N/A Snow Blowing Snow
4:53 PM -8.0 °F -30.3 °F -11.9 °F 83% 30.17 in 2.0 mi East 16.1 mph - N/A Snow Blowing Snow
5:20 PM -7.6 °F -27.5 °F -13.0 °F 77% 30.16 in 5.0 mi East 12.7 mph - N/A Snow Blowing Snow
5:37 PM -9.4 °F -29.8 °F -14.8 °F 77% 30.15 in 1.8 mi East 12.7 mph - N/A Snow Blowing Snow
5:53 PM -9.0 °F -30.9 °F -14.1 °F 79% 30.15 in 1.2 mi East 15.0 mph - N/A Snow Blowing Snow
6:05 PM -9.4 °F -30.6 °F -14.8 °F 77% 30.14 in 2.0 mi East 13.8 mph - N/A Snow Blowing Snow
6:53 PM -9.0 °F -32.4 °F -14.1 °F 79% 30.15 in 4.0 mi East 17.3 mph - N/A Snow Blowing Snow
7:27 PM -9.4 °F -32.1 °F -14.8 °F 77% 30.13 in 7.0 mi East 16.1 mph - N/A Snow Blowing Snow
7:53 PM -9.0 °F -30.9 °F -14.1 °F 79% 30.14 in 7.0 mi East 15.0 mph - N/A   Scattered Clouds
8:53 PM -9.0 °F -30.9 °F -13.0 °F 83% 30.14 in 7.0 mi East 15.0 mph - N/A   Clear
9:53 PM -9.0 °F -30.2 °F -13.0 °F 83% 30.14 in 10.0 mi East 13.8 mph - N/A   Clear
10:53 PM -9.0 °F -28.4 °F -14.1 °F 79% 30.13 in 10.0 mi East 11.5 mph - N/A   Clear
11:53 PM -9.9 °F -28.6 °F -15.0 °F 78% 30.13 in 10.0 mi ENE 10.4 mph - N/A   Clear